[[{"header":{"parameterUnit":"m.s-1","parameterCategory":1,"la1":30.2991,"la2":30.254,"lo1":-89.0895,"lo2":-89.0444,"dy":0.0017,"dx":0.0017,"nx":28,"ny":28,"refTime":"2025-12-19T03:00:00:Z","depth":0,"parameterNumber":2,"parameterNumberName":"U-component_of_WINDS"},"data":[0,0,0,0,0,0,0,0,0,0,0,0,0,0,0,0,0,0,0,0,0,0,0,0,0,0,0,0,0,0,0,0,0,0,0,0,0,0,0,0,0,0,0,0,0,0,0,0,0,0,0,0,0,0,0,0,0,0,-4.5953,-4.5954,0,-4.6036,-4.6037,-4.6038,-4.5925,-4.5921,-4.5917,-4.5913,-4.5997,-4.6003,-4.6009,0,0,0,0,0,0,0,0,0,0,0,0,0,-4.5696,-4.5701,-4.5953,-4.5954,-4.5955,-4.6036,-4.6037,-4.6038,-4.5925,-4.592,-4.5916,-4.5911,-4.5995,-4.6002,-4.6009,0,0,0,0,0,0,0,0,0,0,0,0,0,-4.5796,-4.5703,-4.5953,-4.5909,-4.5905,-4.6036,-4.6037,-4.6038,-4.5926,-4.592,-4.5914,-4.5909,-4.5992,-4.6001,-4.601,-4.6187,0,0,-4.6038,-4.6042,0,0,0,0,0,0,0,0,-4.5791,-4.5806,-4.5914,-4.5912,-4.5909,-4.5964,-4.5977,-4.6088,-4.5928,-4.5919,-4.5913,-4.5906,-4.5991,-4.5999,-4.6028,-4.6191,-4.6195,-4.6038,-4.6044,-4.6048,-4.605,0,0,0,0,0,0,0,-4.5784,-4.5802,-4.5986,-4.5916,-4.5912,-4.5884,-4.5892,-4.5998,-4.5988,-4.5919,-4.5911,-4.5922,-4.5988,-4.602,-4.6029,-4.6196,-4.6038,-4.6046,-4.6052,-4.6055,-4.6507,-4.6514,0,0,0,0,0,0,-4.5782,-4.5797,-4.5983,-4.5988,-4.5834,-4.5894,-4.5902,-4.5952,-4.5986,-4.5985,-4.5927,-4.5917,-4.6007,-4.6019,-4.6032,-4.624,-4.6048,-4.6056,-4.6061,-4.6501,-4.6509,-4.6516,0,0,0,0,0,0,-4.5777,-4.58,-4.598,-4.589,-4.5911,-4.5905,-4.5962,-4.5957,-4.5989,-4.5993,-4.599,-4.5962,-4.6003,-4.6019,-4.6149,-4.6242,-4.606,-4.6068,-4.6493,-4.6503,-4.6513,-4.666,0,0,0,0,0,0,-4.577,-4.5799,-4.5866,-4.5893,-4.5916,-4.6096,-4.5967,-4.5963,-4.6005,-4.5991,-4.6024,-4.6024,-4.6,-4.6136,-4.6158,-4.6251,-4.6075,-4.6485,-4.6498,-4.6509,-4.6647,-4.6673,-4.6696,0,0,0,0,0,-4.5762,-4.5904,-4.587,-4.5893,-4.6,-4.6102,-4.6115,-4.6085,-4.6013,-4.608,-4.6082,-4.6023,-4.6229,-4.6151,-4.6174,-4.6271,-4.6479,-4.6494,-4.6508,-4.6635,-4.6668,-4.6696,0,0,0,0,0,0,-4.5888,-4.5907,-4.5869,-4.6025,-4.6063,-4.6083,-4.6166,-4.6121,-4.6179,-4.6165,-4.6124,-4.6132,-4.6271,-4.6284,-4.6197,-4.6444,-4.6342,-4.6362,-4.643,-4.6461,-4.6486,-4.6479,-4.6083,0,0,0,0,0,-4.5935,-4.6016,-4.6027,-4.6164,-4.6185,-4.6173,-4.6216,-4.6189,-4.6227,-4.6242,-4.6254,-4.6292,-4.6365,-4.6414,-4.6482,-4.6649,-4.6653,-4.6727,-4.6752,-4.6772,-4.679,-4.6878,-4.691,-4.6565,-4.6565,-4.6565,0,0,-4.603,-4.6051,-4.6104,-4.619,-4.6216,-4.63,-4.6187,-4.6281,-4.6343,-4.6256,-4.6379,-4.639,-4.643,-4.6579,-4.6645,-4.6594,-4.6887,-4.6791,-4.6808,-4.6814,-4.6897,-4.6929,-4.6959,-4.6575,-4.6573,-4.6572,0,0,-4.6248,-4.6272,-4.6388,-4.6417,-4.6458,-4.6449,-4.6477,-4.6505,-4.6508,-4.6632,-4.6568,-4.6641,-4.6768,-4.6799,-4.6832,-4.7063,-4.7009,-4.7086,-4.7216,-4.7302,-4.7329,-4.7353,-4.7434,-4.7464,-4.7104,-4.7104,-4.7104,0,-4.6361,-4.6487,-4.6453,-4.6552,-4.6591,-4.6517,-4.6633,-4.6663,-4.6724,-4.6753,-4.6695,-4.6853,-4.6875,-4.703,-4.7086,-4.7115,-4.7145,-4.7081,-4.7328,-4.7352,-4.7374,-4.7451,-4.7481,-4.7113,-4.7112,-4.7111,-4.711,0,-4.6624,-4.6712,-4.68,-4.6862,-4.6911,-4.7018,-4.7,-4.7055,-4.7024,-4.7022,-4.7148,-4.7172,-4.7243,-4.7278,-4.725,-4.743,-4.7396,-4.7335,-4.723,-4.7416,-4.7488,-4.7517,-4.7126,-4.7123,-4.712,-4.7118,0,0,-4.6921,-4.6964,-4.6997,-4.7023,-4.7064,-4.7131,-4.7236,-4.7305,-4.7352,-4.7397,-4.7483,-4.7593,-4.7536,-4.7573,-4.7547,-4.7624,-4.7804,-4.7552,-4.7552,-4.7597,-4.8002,-4.8047,-4.8082,-4.777,-4.7775,-4.778,-4.7998,0,-4.7137,-4.7317,-4.729,-4.7464,-4.7544,-4.7476,-4.7566,-4.7601,-4.7602,-4.767,-4.7671,-4.7749,-4.7669,-4.769,-4.7763,-4.7767,-4.7884,-4.7751,-4.7848,-4.7852,-4.7838,-4.812,-4.8167,-4.8372,-4.8026,-4.8031,-4.8035,0,-4.7413,-4.7469,-4.7651,-4.7679,-4.7711,-4.7793,-4.7855,-4.7921,-4.796,-4.7955,-4.7997,-4.7958,-4.8062,-4.7958,-4.81,-4.8009,-4.8048,-4.8056,-4.8063,-4.8069,-4.7953,-4.8132,-4.8437,-4.8468,-4.8078,-4.8075,-4.8072,0,-4.761,-4.7731,-4.7855,-4.788,-4.7917,-4.7976,-4.7994,-4.8026,-4.8069,-4.8124,-4.8152,-4.8218,-4.8253,-4.8305,-4.8285,-4.8211,-4.8431,-4.8325,-4.8429,-4.843,-4.8476,-4.8473,-4.879,-4.8505,-4.8504,-4.8504,-4.8503,0,-4.7853,-4.7966,-4.7944,-4.802,-4.8145,-4.8113,-4.8238,-4.8247,-4.8277,-4.8353,-4.8299,-4.8372,-4.8341,-4.8412,-4.8397,-4.8517,-4.8534,-4.8532,-4.8526,-4.8536,-4.8536,-4.8559,-4.8543,-4.8512,-4.851,-4.8509,-4.8507,0,-4.8093,-4.8083,-4.8213,-4.8237,-4.8246,-4.8337,-4.8357,-4.8429,-4.8426,-4.8524,-4.8545,-4.8541,-4.8621,-4.8607,-4.8696,-4.8686,-4.8835,-4.8813,-4.8822,-4.8816,-4.892,-4.891,-4.9261,-4.9305,-4.8993,-4.8996,-4.8999,0,-4.8248,-4.8333,-4.8367,-4.8415,-4.8437,-4.8514,-4.8559,-4.8532,-4.858,-4.8631,-4.8696,-4.8772,-4.8831,-4.8963,-4.8968,-4.9036,-4.9014,-4.9133,-4.9024,-4.9031,-4.9014,-4.9008,-4.9016,-4.9153,-4.9157,-4.916,-4.9162,0,-4.8523,-4.8514,-4.858,-4.8645,-4.87,-4.875,-4.8794,-4.8836,-4.8813,-4.887,-4.8953,-4.8999,-4.909,-4.9166,-4.923,-4.9248,-4.9202,-4.9197,-4.9224,-4.9234,-4.9235,-4.9234,-4.8879,-4.9188,-4.9186,-4.9184,-4.9183,-4.9181,-4.8723,-4.8796,-4.8831,-4.8907,-4.8938,-4.8981,-4.9049,-4.9055,-4.9124,-4.9196,-4.9176,-4.9269,-4.9305,-4.9386,-4.9412,-4.9484,-4.944,-4.948,-4.9489,-4.9499,-4.9511,-4.9226,-4.9496,-4.9495,-4.9494,-4.9494,-4.9493,0,-4.8994,-4.9014,-4.9084,-4.9148,-4.9208,-4.916,-4.9207,-4.926,-4.9343,-4.9381,-4.9441,-4.9535,-4.9609,-4.962,-4.969,-4.9746,-4.9726,-4.9765,-4.9759,-4.9764,-4.9547,-4.9516,-4.978,-4.9779,-4.9779,-4.9779,-4.9779,-4.9779,-4.9142,-4.9262,-4.9257,-4.9392,-4.9411,-4.9502,-4.9532,-4.9572,-4.9602,-4.971,-4.9771,-4.9778,-4.9806,-4.9877,-4.9943,-4.9944,-4.9972,-5.0018,-5.0012,-4.9808,-4.978,-4.9752,-4.9722,-5.0025,-5.0026,-5.0222,-5.0224,-5.0225]},{"header":{"parameterUnit":"m.s-1","parameterCategory":1,"la1":30.2991,"la2":30.254,"lo1":-89.0895,"lo2":-89.0444,"dy":0.0017,"dx":0.0017,"nx":28,"ny":28,"refTime":"2025-12-19T03:00:00:Z","depth":0,"parameterNumber":3,"parameterNumberName":"V-component_of_WINDS"},"data":[0,0,0,0,0,0,0,0,0,0,0,0,0,0,0,0,0,0,0,0,0,0,0,0,0,0,0,0,0,0,0,0,0,0,0,0,0,0,0,0,0,0,0,0,0,0,0,0,0,0,0,0,0,0,0,0,0,0,0.5762,0.5762,0,0.5729,0.5729,0.5728,0.5673,0.5672,0.5671,0.567,0.5636,0.5636,0.5636,0,0,0,0,0,0,0,0,0,0,0,0,0,0.5778,0.5778,0.5762,0.5762,0.5761,0.5729,0.5729,0.5728,0.5673,0.5672,0.5671,0.567,0.5636,0.5636,0.5636,0,0,0,0,0,0,0,0,0,0,0,0,0,0.5761,0.5778,0.5762,0.573,0.5727,0.5729,0.5729,0.5728,0.5674,0.5672,0.5671,0.5669,0.5636,0.5636,0.5636,0.5667,0,0,0.5636,0.5637,0,0,0,0,0,0,0,0,0.5762,0.576,0.5735,0.5732,0.5729,0.5704,0.5722,0.5708,0.5674,0.5694,0.567,0.5668,0.566,0.5658,0.5655,0.5666,0.5664,0.5637,0.5637,0.5637,0.5637,0,0,0,0,0,0,0,0.5763,0.5761,0.5749,0.5735,0.5731,0.5717,0.5713,0.5719,0.5686,0.5692,0.5688,0.5685,0.5658,0.5655,0.5654,0.5664,0.5637,0.5637,0.5637,0.5637,0.57,0.5702,0,0,0,0,0,0,0.5769,0.5763,0.575,0.5748,0.5742,0.5718,0.5714,0.5713,0.5686,0.568,0.5686,0.5682,0.5656,0.5654,0.5652,0.5688,0.5637,0.5637,0.5637,0.5699,0.5701,0.5702,0,0,0,0,0,0,0.5769,0.5768,0.5751,0.5754,0.5751,0.572,0.572,0.5713,0.5711,0.5681,0.5675,0.5689,0.5654,0.5652,0.5664,0.5686,0.5637,0.5637,0.5697,0.5699,0.5701,0.5759,0,0,0,0,0,0,0.577,0.5769,0.578,0.5755,0.5751,0.5764,0.5721,0.5714,0.5711,0.5706,0.5683,0.5677,0.5653,0.5665,0.5665,0.5685,0.5637,0.5695,0.5698,0.5701,0.5755,0.5763,0.577,0,0,0,0,0,0.5771,0.5797,0.5781,0.578,0.5764,0.5765,0.5763,0.5735,0.5713,0.5724,0.5706,0.5678,0.5684,0.5666,0.5666,0.5687,0.5693,0.5697,0.57,0.5751,0.5761,0.577,0,0,0,0,0,0,0.5825,0.5793,0.5775,0.5794,0.5783,0.5756,0.5769,0.5746,0.574,0.5736,0.5701,0.5696,0.5713,0.5701,0.5682,0.5716,0.5684,0.5688,0.5723,0.5732,0.574,0.5742,0.5637,0,0,0,0,0,0.5839,0.5842,0.5814,0.5834,0.5829,0.58,0.58,0.5779,0.5766,0.5761,0.5743,0.5732,0.5731,0.5731,0.5728,0.5753,0.5748,0.5767,0.5775,0.5781,0.5785,0.5798,0.5807,0.5714,0.5714,0.5714,0,0,0.5868,0.5851,0.5855,0.5844,0.5833,0.5838,0.5797,0.5803,0.5806,0.5762,0.5772,0.5759,0.5744,0.5763,0.577,0.5753,0.5809,0.5786,0.5791,0.5791,0.5803,0.5811,0.5819,0.5717,0.5717,0.5716,0,0,0.5924,0.5911,0.5926,0.5917,0.5901,0.5882,0.5886,0.5863,0.5852,0.5863,0.583,0.5833,0.5832,0.5824,0.5819,0.5873,0.5848,0.5873,0.5912,0.5926,0.5933,0.5939,0.5959,0.5967,0.5877,0.5877,0.5877,0,0.5962,0.5967,0.5937,0.5946,0.5942,0.5903,0.5919,0.5911,0.5895,0.5894,0.5875,0.5874,0.5861,0.5878,0.5892,0.5889,0.5893,0.5876,0.5934,0.594,0.5946,0.5964,0.5972,0.5881,0.588,0.588,0.588,0,0.6015,0.602,0.6034,0.602,0.6018,0.603,0.6003,0.6004,0.5985,0.5968,0.5979,0.5963,0.5957,0.5959,0.594,0.5974,0.5964,0.5941,0.5908,0.5958,0.5975,0.5982,0.5885,0.5884,0.5883,0.5882,0,0,0.6102,0.6073,0.6079,0.6073,0.6054,0.6056,0.6067,0.6062,0.6065,0.6056,0.6064,0.6065,0.6044,0.6039,0.6018,0.603,0.6075,0.6005,0.6004,0.6019,0.6113,0.6131,0.6139,0.6059,0.606,0.6061,0.6114,0,0.6154,0.617,0.6145,0.6167,0.6171,0.6136,0.6145,0.6135,0.612,0.6121,0.6105,0.6106,0.6078,0.6075,0.6085,0.6067,0.6093,0.6063,0.6067,0.6067,0.6071,0.6148,0.6166,0.6217,0.6121,0.6122,0.6122,0,0.6216,0.621,0.6234,0.6214,0.6215,0.6224,0.6218,0.622,0.6208,0.6196,0.6192,0.6167,0.6177,0.6146,0.616,0.614,0.614,0.6132,0.6133,0.6132,0.6098,0.6149,0.6233,0.6241,0.6132,0.6132,0.6131,0,0.6278,0.6276,0.629,0.6286,0.6264,0.6271,0.6262,0.6249,0.6248,0.6242,0.6242,0.6238,0.6236,0.6233,0.6209,0.6188,0.6226,0.6193,0.6217,0.6218,0.6226,0.6226,0.6311,0.6226,0.6226,0.6226,0.6226,0,0.6338,0.6353,0.6318,0.6327,0.6344,0.6315,0.6332,0.632,0.6308,0.6314,0.6283,0.629,0.6257,0.626,0.6241,0.6256,0.6255,0.6246,0.6241,0.6249,0.625,0.6248,0.6244,0.6228,0.6228,0.6227,0.6227,0,0.6409,0.6386,0.6399,0.6378,0.6372,0.6386,0.6367,0.6375,0.6359,0.6367,0.6367,0.6342,0.6344,0.632,0.6317,0.6304,0.6328,0.6316,0.6332,0.6328,0.6354,0.6353,0.6441,0.6452,0.6361,0.6362,0.6362,0,0.6449,0.646,0.644,0.6442,0.6435,0.6438,0.6438,0.641,0.641,0.6398,0.6407,0.6407,0.6405,0.6411,0.6392,0.6391,0.6379,0.641,0.6378,0.6386,0.638,0.6379,0.6381,0.6417,0.6418,0.6419,0.642,0,0.6522,0.6511,0.651,0.6507,0.6507,0.6503,0.6497,0.65,0.647,0.6472,0.6474,0.6473,0.6471,0.6472,0.6467,0.6458,0.6434,0.643,0.6436,0.6444,0.6453,0.6449,0.635,0.6428,0.6427,0.6426,0.6426,0.6426,0.6579,0.6588,0.6576,0.6577,0.657,0.6565,0.6571,0.6556,0.6558,0.6554,0.6538,0.6543,0.6532,0.6523,0.6517,0.6521,0.6505,0.6514,0.6516,0.6518,0.6523,0.6452,0.652,0.6519,0.6519,0.6519,0.6519,0,0.6651,0.6642,0.6643,0.6636,0.6638,0.6616,0.6608,0.6611,0.6616,0.6608,0.6607,0.6611,0.6611,0.6594,0.6592,0.6599,0.6588,0.66,0.6599,0.6597,0.6536,0.6532,0.6609,0.6609,0.6609,0.6609,0.6609,0.6609,0.6688,0.6703,0.669,0.6701,0.6692,0.6697,0.6695,0.6691,0.6684,0.6689,0.669,0.6678,0.6667,0.6664,0.6665,0.6659,0.666,0.6676,0.6667,0.661,0.6602,0.6593,0.6589,0.6676,0.6676,0.6728,0.6728,0.6728]}]]